STARLINK-31868, 59783

Orbit data source: Space-Track

STARLINK-31868, 59783 is a payload satellite owned by SpaceX/Seattle (US) in LEO that was launched on Sat, 18 May 2024 UTC via an FALCON 9 launch vehicle from the Air Force Eastern Test Range (AFETR). Payload-class satellites include a variety of spacecraft equipped with specific instruments for various scientific and technological missions. These include communications satellites like Starlink; space stations such as the ISS; scientific satellites like the Hubble; Earth observation satellites from companies like Planet Labs, Umbra, and HawkEye 360; GPS; miniature CubeSats for education and research; and military/defense satellites.

Loading next visibility...
Identifier
59783, 2024-093B
Orbit
LEO
Last TLE update
8 hours ago
Origin
Manufacturer
SpaceX/Seattle
Mission
Operational spacecraft
Bus & Motor
STARLINK V2M, Unknown motor
Mass
730 kg wet, ~700 kg dry
Launch date (UTC)
2024-05-18 (1 year ago)
Launch vehicle
FALCON 9
Launch site
Air Force Eastern Test Range (AFETR)
Object type
Payload
Rocket body
Debris
Shape & HBR
Unknown
Radar Cross Section
Large (>1 m²)

Expand to show TLE details & history

TLE from 8 hours ago
0 STARLINK-31868
1 59783U 24093B   25201.05706283 -.00000658  00000-0 -14377-4 0  9998
2 59783  43.0045  79.4547 0001578 272.6750  87.3921 15.27589582 67157
Epoch: 2025-07-20T01:22Z
TLE epoch observation values (Epoch: 2025-07-20T01:22:10.228Z)
Latitude
-0.00002°
Longitude
120.82677°
Altitude
482.747 km
Speed
7.626 km/s
True Right ascension
05h 17m 49s
True Declination
0° 00' 00"
Sunlit
Object was in daylight at epoch
Visualization orbit readout
Latitude
39.1085°
Longitude
179.00008°
Altitude
486.26 km
Speed
7.627 km/s
Apparent Right ascension
09h 45m 32s
Apparent Declination
1° 20' 50"
Sunlit
Object is in daylight
Visualization observer readout
Local Sidereal Time
22:23:42
Azimuth
14.29° NNE
Elevation
-47.823°
Doppler factor
1
Orbital elements
Apogee altitude
486.048 km
Perigee altitude
483.882 km
Semi-major axis
6,863.102 km
Eccentricity
0.00016
Inclination
43.0045°
RAAN
79.4547°
Arg. of periapsis
272.675°
True anomaly
87.41016°
Mean anomaly
87.3921°
Eccentric anomaly
87.40113°
Mean motion
3.81735 °/min
Orbital period
94.31 mins
BSTAR
-0.000014377
Loading maneuver chart data...
Loading SW <> Apogee altitude chart data...
Loading historical data...
Loading historical data...
Loading historical data...
Loading historical data...
Loading historical data...
Loading historical data...
Loading historical data...
|